Home > Weather > Caen > Past weeks

Flag for France Weather for the Past 2 Weeks in Caen, France

Now
41 °F

Mostly cloudy.


Feels Like: 41 °F
Forecast: 39 / 44 °F
Wind: 2 mph from North

Location: Caen Airport

Current Time: Feb 14, 2016 at 7:39:20 AM

Latest Report: Feb 14, 2016 at 7:00 AM


Visibility: 4 mi

Pressure: 29.18 "Hg

Humidity: 100%

Dew point: 41 °F

Location of CaenLocation

Historic Weather in Caen — Graph

°F

Caen Temperature Yesterday

Maximum temperature yesterday: 50 °F (at 2:30 PM)
Minimum temperature yesterday: 39 °F (at 12:00 AM)
Average temperature yesterday: 44 °F

High & Low Weather Summary for the Past Weeks

 TemperatureHumidityPressure
High55 °F (Jan 31, 12:30 PM)100% (Jan 31, 7:30 AM)30.51 "Hg (Jan 31, 7:30 AM)
Low34 °F (Feb 9, 6:00 PM)58% (Feb 3, 1:30 PM)28.82 "Hg (Feb 13, 1:30 PM)
Average46 °F87%29.77 "Hg
* Reported Jan 30 6:30 AM — Feb 14 6:00 AM, Caen, Weather by CustomWeather, © 2016

Note: Actual official high and low records may vary slightly from our data, if they occured in-between our weather recording intervals... More about our weather records

Advertising

Caen Weather History for the Previous 24 Hours

 ConditionsComfort  
Time TempWeatherWind HumidityBarometerVisibility
6:00 AM
Sun, Feb 14
41 °FOvercast.No wind100%29.15 "Hg4 mi
5:30 AM41 °FMostly cloudy.1 mph100%29.15 "Hg4 mi
5:00 AM41 °FOvercast.3 mph100%29.15 "Hg6 mi
4:30 AM41 °FMostly cloudy.2 mph100%29.15 "Hg4 mi
4:00 AM41 °FOvercast.2 mph100%29.15 "Hg5 mi
3:30 AM41 °FOvercast.5 mph100%29.15 "Hg6 mi
3:00 AM43 °FMostly cloudy.6 mph93%29.15 "HgN/A
2:30 AM43 °FOvercast.8 mph93%29.15 "HgN/A
2:00 AM43 °FOvercast.6 mph93%29.15 "HgN/A
1:30 AM43 °FOvercast.8 mph93%29.15 "HgN/A
1:00 AM43 °FMostly cloudy.8 mph93%29.15 "HgN/A
12:30 AM43 °FOvercast.6 mph93%29.15 "HgN/A
12:00 AM43 °FOvercast.8 mph93%29.15 "HgN/A
11:30 PM
Sat, Feb 13
43 °FOvercast.9 mph93%29.15 "HgN/A
11:00 PM43 °FOvercast.8 mph93%29.15 "HgN/A
10:30 PM43 °FPartly cloudy.8 mph93%29.15 "HgN/A
10:00 PM43 °FMostly cloudy.10 mph93%29.15 "HgN/A
9:30 PM43 °FPassing clouds.10 mph100%29.15 "Hg4 mi
9:00 PM43 °FPassing clouds.14 mph100%29.12 "HgN/A
8:30 PM45 °FLight rain. Fog.13 mph93%29.12 "Hg3 mi
8:00 PM45 °FMostly cloudy.10 mph93%29.09 "HgN/A
7:30 PM45 °FDrizzle. Mostly cloudy.16 mph100%29.09 "HgN/A
7:00 PM46 °FLight rain. Mostly cloudy.21 mph93%29.03 "Hg5 mi
6:30 PM46 °FPassing clouds.12 mph93%29.00 "HgN/A
6:00 PM46 °FBroken clouds.13 mph93%29.00 "HgN/A
5:30 PM46 °FMostly cloudy.17 mph93%28.97 "HgN/A
5:00 PM46 °FPartly sunny.23 mph93%28.94 "HgN/A
4:30 PM48 °FLight rain. Partly sunny.13 mph94%28.91 "HgN/A
4:00 PM48 °FMostly cloudy.14 mph94%28.88 "HgN/A
3:30 PM48 °FDrizzle. Fog.12 mph94%28.85 "Hg3 mi
3:00 PM48 °FMostly cloudy.13 mph94%28.82 "HgN/A
2:30 PM50 °FMostly cloudy.13 mph88%28.82 "HgN/A
2:00 PM48 °FLight rain. Broken clouds.10 mph94%28.82 "HgN/A
1:30 PM46 °FLight rain. Cloudy.7 mph100%28.82 "HgN/A
1:00 PM46 °FLight rain. Fog.7 mph93%28.85 "Hg3 mi
12:30 PM46 °FLight rain. Mostly cloudy.9 mph93%28.85 "Hg5 mi
12:00 PM46 °FLight rain. Mostly cloudy.10 mph93%28.85 "HgN/A
11:30 AM46 °FLight rain. Mostly cloudy.9 mph93%28.88 "HgN/A
11:00 AM46 °FDrizzle. Broken clouds.8 mph87%28.88 "HgN/A
10:30 AM45 °FBroken clouds.12 mph93%28.91 "HgN/A
10:00 AM45 °FBroken clouds.12 mph93%28.91 "HgN/A
9:30 AM43 °FLight rain. Mostly cloudy.13 mph93%28.94 "HgN/A
9:00 AM43 °FLight rain. Mostly cloudy.12 mph93%28.97 "HgN/A
8:30 AM43 °FLight rain. Fog.14 mph93%29.00 "Hg3 mi
8:00 AM41 °FPartly cloudy.13 mph100%29.00 "HgN/A
7:30 AM41 °FMostly cloudy.13 mph100%29.03 "HgN/A
7:00 AM41 °FMostly cloudy.10 mph100%29.06 "HgN/A
Weather by CustomWeather, © 2016

See weather overviewHow to use our weather pages